Location: Keewatin
(47.4004°N, 93.0827°W)
Time: 21:10:17
(UTC+00:00)

KKS-1 - Pass Details

Date: 22 February 2020
Orbit: 637 x 650 km, 98.3° (Epoch: 09 April)

Event Time Altitude Azimuth Distance (km) Brightness Sun altitude
Rises 11:53:45 0° 127° (SE) 2,951 ? -13.0°
Reaches altitude 10° 11:56:22 10° 111° (ESE) 2,043 ? -12.5°
Maximum altitude 11:59:43 21° 62° (ENE) 1,436 ? -12.0°
Drops below altitude 10° 12:03:04 10° 13° (NNE) 2,049 ? -11.4°
Sets 12:05:41 0° 358° (N) 2,961 ? -11.0°
